Location: Unspecified
(54.1780°N, 0.0000°E)
Time: 02:17:45
(UTC+00:00)

Tiros 1 - Pass Details

Date: 26 June 2019
Orbit: 630 x 664 km, 48.4° (Epoch: 16 July)

Event Time Altitude Azimuth Distance (km) Brightness Sun altitude
Rises 02:48:35 0° 272° (W) 2,940 10.2 -4.6°
Reaches altitude 10° 02:51:14 10° 259° (W) 2,023 9.3 -4.4°
Maximum altitude 02:55:00 25° 205° (SSW) 1,296 8.2 -4.1°
Drops below altitude 10° 02:58:43 10° 151° (SSE) 2,007 9.5 -3.7°
Sets 03:01:21 0° 138° (SE) 2,910 10.4 -3.5°
